This demonstration page uses our WeatherBlox Daily Observations layout. Learn more.

Left ArrowRight Arrow

44.89941, -97.11507

Hourly Observations for February 20, 2021

Temp ( °F °C ) Dew Point ( °F °C ) Humidity (%) Winds ( mph kmh ) Pressure ( in mb ) Visibility ( mi km ) Precip ( " mm )
12:53 am 00:53 Clear 3 -16.1 1 -17.2 91 91 SSE 8 13 30.22 1023 8 13 0.00 0.00
1:27 am 01:27 Mostly Clear with Mist and Fog 3 -16.1 1 -17.2 91 91 SSE 9 15 30.30 1026 5 8 0.00 0.00
1:53 am 01:53 Clear 3 -16.1 1 -17.2 91 91 SSE 9 15 30.19 1023 7 11 0.00 0.00
2:53 am 02:53 Clear 2 -16.7 0 -17.8 91 91 SSE 8 13 30.19 1022 7 11 0.00 0.00
3:53 am 03:53 Clear 2 -16.7 -1 -18.3 88 88 SSE 7 11 30.16 1022 7 11 0.00 0.00
4:53 am 04:53 Clear 2 -16.7 -1 -18.3 88 88 SSE 8 13 30.15 1021 7 11 0.00 0.00
5:53 am 05:53 Clear with Mist and Fog 3 -16.1 1 -17.2 91 91 SSE 13 20 30.14 1021 6 10 0.00 0.00
6:53 am 06:53 Clear 4 -15.6 1 -17.2 88 88 SSE 14 22 30.12 1020 7 11 0.00 0.00
7:53 am 07:53 Sunny with Mist and Fog 5 -15 2 -16.7 87 87 SSE 15 24 30.11 1020 6 10 0.00 0.00
8:53 am 08:53 Sunny 7 -13.9 4 -15.6 87 87 S 20 31 30.11 1020 8 13 0.00 0.00
9:09 am 09:09 Partly Cloudy with Mist and Fog 9 -12.8 6 -14.4 88 88 SSE 17 28 30.17 1022 4 6 0.00 0.00
9:12 am 09:12 Mostly Cloudy with Light Snow 9 -12.8 7 -13.9 92 92 S 16 26 30.17 1022 2 3 0.00 0.00
9:15 am 09:15 Mostly Cloudy with Light Snow 9 -12.8 7 -13.9 92 92 S 17 28 30.17 1022 1 1 0.00 0.00
9:26 am 09:26 Mostly Cloudy with Light Snow 11 -11.7 9 -12.8 92 92 SSE 16 26 30.16 1021 1 1 0.00 0.00
9:53 am 09:53 Cloudy with Freezing Fog 13 -10.6 11 -11.7 92 92 SSE 17 28 30.10 1019 1 1 0.00 0.00
10:32 am 10:32 Cloudy with Mist and Fog 15 -9.4 13 -10.6 91 91 S 16 26 30.14 1021 1 2 0.00 0.00
10:40 am 10:40 Cloudy with Mist and Fog 15 -9.4 13 -10.6 91 91 SSE 16 26 30.14 1021 1 1 0.00 0.00
10:53 am 10:53 Cloudy with Mist and Fog 16 -8.9 14 -10 92 92 S 16 26 30.10 1019 1 2 0.00 0.00
11:06 am 11:06 Cloudy with Mist and Fog 17 -8.3 15 -9.4 92 92 S 17 28 30.13 1020 2 3 0.00 0.00
11:21 am 11:21 Cloudy with Mist and Fog 18 -7.8 16 -8.9 92 92 S 14 22 30.12 1020 3 4 0.00 0.00
11:33 am 11:33 Mostly Cloudy with Mist and Fog 20 -6.7 17 -8.3 89 89 SSE 15 24 30.11 1020 3 5 0.00 0.00
11:51 am 11:51 Partly Cloudy with Mist and Fog 21 -6 19 -7 93 93 S 15 24 30.10 1019 3 5 0.00 0.00
11:53 am 11:53 Partly Cloudy with Mist and Fog 22 -5.6 19 -7.2 89 89 S 14 22 30.08 1019 3 5 0.00 0.00
12:53 pm 12:53 Sunny with Mist and Fog 22 -5.6 18 -7.8 85 85 S 17 28 30.07 1018 5 8 0.00 0.00
1:53 pm 13:53 Hazy 24 -4.4 19 -7.2 81 81 S 14 22 30.05 1018 5 8 0.00 0.00
2:53 pm 14:53 Hazy 24 -4.4 19 -7.2 81 81 S 15 24 30.02 1017 5 8 0.00 0.00
3:53 pm 15:53 Hazy 26 -3.3 20 -6.7 78 78 SSE 13 20 30.01 1016 5 8 0.00 0.00
4:53 pm 16:53 Hazy 26 -3.3 21 -6.1 81 81 SSE 13 20 30.00 1016 5 8 0.00 0.00
5:53 pm 17:53 Mostly Cloudy with Haze 25 -3.9 20 -6.7 81 81 SSE 13 20 30.01 1016 4 6 0.00 0.00
6:53 pm 18:53 Cloudy with Mist and Fog 23 -5 20 -6.7 88 88 SSE 9 15 30.02 1017 4 6 0.00 0.00
7:53 pm 19:53 Cloudy with Mist and Fog 22 -5.6 19 -7.2 89 89 SSE 10 17 30.05 1018 5 8 0.00 0.00
8:53 pm 20:53 Cloudy with Mist and Fog 21 -6.1 19 -7.2 92 92 SSE 12 19 30.04 1017 4 6 0.00 0.00
9:53 pm 21:53 Cloudy with Mist and Fog 22 -5.6 19 -7.2 89 89 SSE 12 19 30.04 1017 4 6 0.00 0.00
10:53 pm 22:53 Cloudy with Mist and Fog 23 -5 21 -6.1 92 92 S 13 20 30.05 1018 4 6 0.00 0.00
11:53 pm 23:53 Cloudy with Mist and Fog 22 -5.6 20 -6.7 92 92 SSE 12 19 30.04 1017 4 6 0.00 0.00

Powered by AerisWeather